Regional Weather Roundup
Issued by NWS

Home | Current Version | Previous Version | Text Only | Print | Product List | Glossary Off
Versions: 1 2 3 4 5 6 7 8 9 10 11 12 13 14 15 16 17 18 19 20 21 22 23 24 25 26 27 28 29 30 31 32 33 34 35 36 37 38 39 40 41 42 43 44 45 46 47 48 49 50

197
ASUS43 KDTX 080310
RWRMI
MICHIGAN HOURLY REGIONAL WEATHER ROUNDUP
NATIONAL WEATHER SERVICE DETROIT/PONTIAC MI
1000 PM EST SUN FEB 07 2016

NOTE: "FAIR" INDICATES FEW OR NO CLOUDS BELOW 12,000 FEET WITH NO
SIGNIFICANT WEATHER AND/OR OBSTRUCTION TO VISIBILITY.

MIZ047>049-052>055-059>063-066>070-074>076-081>083-080400-
SOUTHEAST LOWER MICHIGAN

CITY           SKY/WX    TMP DP  RH WIND       PRES   REMARKS
ADRIAN         CLOUDY    41  31  67 W7        29.74F
ALMA           MOCLDY    39  32  78 SW7       29.68F WCI  34
ANN ARBOR      CLOUDY    40  31  70 S7        29.72F
BAD AXE        CLOUDY    39  34  81 S6        29.70F
CARO           CLOUDY    41  32  70 SW7       29.69F
DETROIT CITY   CLOUDY    45  29  53 SW8       29.74F
DETROIT        CLOUDY    44  31  60 S9        29.74F
FLINT          CLOUDY    43  29  57 SW6       29.71F
GROSSE ILE     CLOUDY    45  30  57 SW8       29.73S
HILLSDALE      CLOUDY    39  31  71 SW6       29.72F
HOWELL         CLOUDY    41  31  67 SW8       29.70F

CITY           SKY/WX    TMP DP  RH WIND       PRES   REMARKS
JACKSON        PTCLDY    40  31  70 SW9       29.71F WCI  34
LAMBERTVILLE   CLOUDY    45  31  59 SW3       29.75S
LANSING        PTCLDY    39  30  70 SW8       29.70F WCI  33
LAPEER         FAIR      41  31  67 SW6       29.71S
MASON          PTCLDY    38  31  76 S3        29.70F
MONROE         CLOUDY    45  31  58 SW6       29.74S
MT. CLEMENS    CLOUDY    40  32  75 S8        29.72F WCI  34
PONTIAC        CLOUDY    42  30  62 S5        29.71F
PORT HOPE        N/A     40  34  79 S3        29.69F
PORT HURON     CLOUDY    41  32  70 S7        29.73F
TRI CITIES     CLOUDY    40  31  70 SW7       29.69F
MIDLAND        FAIR      40  30  68 SW9       29.67F WCI  33
TROY           CLOUDY    46  31  54 S5        29.73F
SAGINAW HB     CLOUDY    39  32  75 SW7       29.69F WCI  34
$$
MIZ043>046-050>051-056>058-064>065-071>073-077>080-080400-
SOUTHWEST LOWER MICHIGAN

CITY           SKY/WX    TMP DP  RH WIND       PRES   REMARKS
BATTLE CREEK   MOCLDY    38  31  76 SW8       29.71F WCI  32
BENTON HARBOR  CLEAR     38  31  76 W13       29.73S WCI  30
BIG RAPIDS     CLOUDY    37  33  88 SW3       29.65S
COLDWATER      PTCLDY    38  32  80 W9        29.72F WCI  31
FREMONT        CLOUDY    37  33  87 SW7       29.66S WCI  31
HOLLAND        CLOUDY    38  33  82 SW10      29.71S WCI  31
GRAND RAPIDS   CLOUDY    39  32  76 SW9       29.69F WCI  33
IONIA          CLOUDY    38  31  76 SW12      29.68F WCI  31
KALAMAZOO      CLOUDY    40  31  70 SW8       29.72F WCI  34
LUDINGTON      CLOUDY    37  34  87 SW8       29.65S WCI  31
MARSHALL       CLOUDY    38  32  78 SW7       29.71S WCI  33
MOUNT PLEASANT CLOUDY    38  30  72 SW7       29.66F WCI  33
MUSKEGON       MOCLDY    37  32  82 SW7       29.68F WCI  32
SOUTH HAVEN    PTCLDY    38  33  80 SW8       29.72S WCI  33
$$
MIZ016>042-080400-
NORTHERN LOWER MICHIGAN

CITY           SKY/WX    TMP DP  RH WIND       PRES   REMARKS
ALPENA         CLOUDY    36  30  79 S3        29.66S
BEAVER ISLAND  CLOUDY    37  33  87 S5        29.60F WCI  33
BELLAIRE       CLOUDY    37  31  79 CALM      29.64S
CADILLAC       CLOUDY    35  32  88 S6        29.63S WCI  30
CHARLEVOIX     CLOUDY    37  32  82 S5        29.64F WCI  33
FRANKFORT      CLOUDY    38  33  81 S7        29.62F WCI  33
GAYLORD        CLOUDY    36  30  79 S6        29.62S WCI  31
GRAYLING       CLOUDY    36  30  80 S5        29.64S WCI  32
HARBOR SPRINGS CLOUDY    37  31  79 S5        29.62F WCI  33
HOUGHTON LAKE  CLOUDY    36  29  75 SW7       29.64F WCI  30
MANISTEE       CLOUDY    37  30  75 CALM      29.64F
OSCODA         CLOUDY    38  32  77 S3        29.67F
PELLSTON       CLOUDY    37  30  75 S6        29.62F WCI  32
ROGERS CITY    CLOUDY    38  30  73 S5        29.65S WCI  34
TRAVERSE CITY  CLOUDY    38  30  73 S5        29.62F WCI  34
$$
MIZ007>008-015-080400-
EASTERN UPPER MICHIGAN

CITY           SKY/WX    TMP DP  RH WIND       PRES   REMARKS
KINROSS        CLOUDY    34  34 100 E3        29.61F
MACKINAC ISLAN CLOUDY    36  33  91 S5        29.61F WCI  32
NEWBERRY       LGT RAIN  34  33  96 SW8       29.57F WCI  28
S. S. MARIE    CLOUDY    33  31  92 SE6       29.61F FOG     WCI  28
MUNISING         N/A     35  32  88 S5        29.55S WCI  31
$$
MIZ004>006-011>014-085-080400-
CENTRAL UPPER MICHIGAN

CITY           SKY/WX    TMP DP  RH WIND       PRES   REMARKS
MANISTIQUE     CLOUDY    35  33  90 S3        29.57F
ESCANABA       CLOUDY    34  30  86 CALM      29.57S
MENOMINEE      CLOUDY    36  28  75 SW8       29.57F WCI  29
SAWYER-GWINN   LGT SNOW  32  32 100 S7        29.52F WCI  26
$$
MIZ001>003-009>011-084-080400-
WESTERN UPPER MICHIGAN

CITY           SKY/WX    TMP DP  RH WIND       PRES   REMARKS
IRON MOUNTAIN  CLOUDY    34  29  82 S5        29.52F WCI  30
HOUGHTON       LGT SNOW  32  31  96 NE3       29.50S FOG
COPPER HARBOR    N/A     33  32  96 NE3       29.53S
IRONWOOD       CLOUDY    30  30 100 W12       29.49S WCI  21
$$

ABBREVIATIONS USED IN REMARKS
   TC - TEMPERATURE IN CELSIUS
  WCI - WIND CHILL INDEX
   HX - HEAT INDEX
  VSB - VISIBILITY





USA.gov is the U.S. government's official web portal to all federal, state and local government web resources and services.